| time (UTC) | temp F | wind direction | speed MPH | gust MPH | rain 1hr in | rain 24hr in | rain mn in | humidity % | barometer mb |
| 20260507023017 | 79 | 135 | 6.0 | 9.0 | 0.00 | 0.00 | 0.00 | 47 | 1011.6 |
| 20260507022545 | 79 | 134 | 6.0 | 9.0 | 0.00 | 0.00 | 0.00 | 49 | 1011.5 |
| 20260507022018 | 79 | 131 | 6.0 | 10.0 | 0.00 | 0.00 | 0.00 | 49 | 1011.5 |
| 20260507021457 | 79 | 122 | 7.0 | 11.0 | 0.00 | 0.00 | 0.00 | 50 | 1011.5 |
| 20260507021018 | 79 | 122 | 7.0 | 11.0 | 0.00 | 0.00 | 0.00 | 50 | 1011.5 |
| 20260507020500 | 80 | 120 | 9.0 | 13.0 | 0.00 | 0.00 | 0.00 | 48 | 1011.4 |
| 20260507015957 | 80 | 122 | 7.0 | 12.0 | 0.00 | 0.00 | 0.00 | 48 | 1011.4 |
| 20260507015545 | 80 | 122 | 7.0 | 12.0 | 0.00 | 0.00 | 0.00 | 48 | 1011.4 |
| 20260507015022 | 80 | 117 | 7.0 | 11.0 | 0.00 | 0.00 | 0.00 | 47 | 1011.4 |
| 20260507014458 | 81 | 118 | 9.0 | 13.0 | 0.00 | 0.00 | 0.00 | 44 | 1011.4 |
| 20260507013958 | 81 | 118 | 10.0 | 14.0 | 0.00 | 0.00 | 0.00 | 42 | 1011.4 |
| 20260507013500 | 81 | 120 | 8.0 | 13.0 | 0.00 | 0.00 | 0.00 | 43 | 1011.4 |
| 20260507012957 | 81 | 118 | 8.0 | 13.0 | 0.00 | 0.00 | 0.00 | 42 | 1011.4 |
| 20260507012547 | 81 | 118 | 8.0 | 13.0 | 0.00 | 0.00 | 0.00 | 42 | 1011.4 |
| 20260507012035 | 81 | 116 | 10.0 | 14.0 | 0.00 | 0.00 | 0.00 | 42 | 1011.5 |
| 20260507011518 | 81 | 112 | 10.0 | 15.0 | 0.00 | 0.00 | 0.00 | 43 | 1011.5 |
| 20260507010501 | 81 | 109 | 10.0 | 13.0 | 0.00 | 0.00 | 0.00 | 44 | 1011.5 |
| 20260507005958 | 81 | 109 | 10.0 | 15.0 | 0.00 | 0.00 | 0.00 | 41 | 1011.4 |
| 20260507005523 | 81 | 109 | 10.0 | 15.0 | 0.00 | 0.00 | 0.00 | 41 | 1011.4 |
| 20260507005027 | 81 | 112 | 11.0 | 16.0 | 0.00 | 0.00 | 0.00 | 41 | 1011.5 |
| 20260507004458 | 81 | 112 | 12.0 | 17.0 | 0.00 | 0.00 | 0.00 | 42 | 1011.5 |
| 20260507003958 | 81 | 111 | 11.0 | 16.0 | 0.00 | 0.00 | 0.00 | 41 | 1011.4 |
| 20260507003500 | 82 | 111 | 12.0 | 17.0 | 0.00 | 0.00 | 0.00 | 41 | 1011.4 |
| 20260507003019 | 82 | 109 | 11.0 | 17.0 | 0.00 | 0.00 | 0.00 | 41 | 1011.4 |
| 20260507002530 | 82 | 109 | 11.0 | 17.0 | 0.00 | 0.00 | 0.00 | 41 | 1011.4 |
| 20260507002026 | 82 | 111 | 11.0 | 15.0 | 0.00 | 0.00 | 0.00 | 37 | 1011.4 |
| 20260507001501 | 82 | 105 | 11.0 | 16.0 | 0.00 | 0.00 | 0.00 | 42 | 1011.4 |
| 20260507001019 | 82 | 105 | 11.0 | 16.0 | 0.00 | 0.00 | 0.00 | 42 | 1011.4 |
| 20260507000525 | 82 | 109 | 11.0 | 16.0 | 0.00 | 0.00 | 0.00 | 41 | 1011.4 |
| 20260507000025 | 82 | 112 | 11.0 | 15.0 | 0.00 | 0.00 | 0.00 | 40 | 1011.4 |
| 20260506235624 | 82 | 108 | 11.0 | 16.0 | 0.00 | 0.00 | 0.00 | 41 | 1011.4 |
| 20260506235118 | 82 | 109 | 11.0 | 16.0 | 0.00 | 0.00 | 0.00 | 40 | 1011.4 |
| 20260506234520 | 83 | 107 | 11.0 | 16.0 | 0.00 | 0.00 | 0.00 | 35 | 1011.4 |
| 20260506233958 | 82 | 107 | 11.0 | 16.0 | 0.00 | 0.00 | 0.00 | 36 | 1011.4 |
| 20260506233458 | 82 | 111 | 12.0 | 17.0 | 0.00 | 0.00 | 0.00 | 37 | 1011.5 |
| 20260506232958 | 82 | 109 | 11.0 | 16.0 | 0.00 | 0.00 | 0.00 | 40 | 1011.6 |
| 20260506232524 | 82 | 109 | 11.0 | 16.0 | 0.00 | 0.00 | 0.00 | 40 | 1011.6 |
| 20260506232027 | 81 | 107 | 12.0 | 16.0 | 0.00 | 0.00 | 0.00 | 41 | 1011.6 |
| 20260506231519 | 81 | 109 | 11.0 | 16.0 | 0.00 | 0.00 | 0.00 | 40 | 1011.7 |
| 20260506231019 | 81 | 109 | 11.0 | 16.0 | 0.00 | 0.00 | 0.00 | 40 | 1011.7 |
| 20260506230500 | 81 | 109 | 11.0 | 16.0 | 0.00 | 0.00 | 0.00 | 44 | 1011.9 |
| 20260506225958 | 80 | 107 | 12.0 | 16.0 | 0.00 | 0.00 | 0.00 | 46 | 1012.0 |
| 20260506225514 | 80 | 107 | 12.0 | 16.0 | 0.00 | 0.00 | 0.00 | 46 | 1012.0 |
| 20260506225029 | 80 | 103 | 11.0 | 16.0 | 0.00 | 0.00 | 0.00 | 47 | 1012.0 |
| 20260506224458 | 80 | 104 | 11.0 | 16.0 | 0.00 | 0.00 | 0.00 | 44 | 1012.2 |
| 20260506223958 | 80 | 99 | 9.0 | 14.0 | 0.00 | 0.00 | 0.00 | 47 | 1012.3 |
| 20260506223459 | 79 | 98 | 10.0 | 15.0 | 0.00 | 0.00 | 0.00 | 48 | 1012.4 |
| 20260506223014 | 79 | 98 | 10.0 | 15.0 | 0.00 | 0.00 | 0.00 | 48 | 1012.4 |
| 20260506222613 | 79 | 100 | 11.0 | 15.0 | 0.00 | 0.00 | 0.00 | 49 | 1012.5 |
| 20260506222050 | 80 | 102 | 11.0 | 16.0 | 0.00 | 0.00 | 0.00 | 47 | 1012.6 |
| 20260506221501 | 79 | 104 | 12.0 | 17.0 | 0.00 | 0.00 | 0.00 | 46 | 1012.8 |
| 20260506221022 | 79 | 104 | 12.0 | 17.0 | 0.00 | 0.00 | 0.00 | 46 | 1012.8 |
| 20260506220504 | 78 | 105 | 13.0 | 17.0 | 0.00 | 0.00 | 0.00 | 47 | 1012.9 |
| 20260506220029 | 78 | 105 | 13.0 | 17.0 | 0.00 | 0.00 | 0.00 | 47 | 1012.9 |
| 20260506215555 | 78 | 105 | 13.0 | 17.0 | 0.00 | 0.00 | 0.00 | 47 | 1013.0 |
| 20260506215047 | 78 | 100 | 11.0 | 17.0 | 0.00 | 0.00 | 0.00 | 49 | 1013.0 |
| 20260506214500 | 78 | 104 | 12.0 | 16.0 | 0.00 | 0.00 | 0.00 | 50 | 1013.2 |
| 20260506214020 | 78 | 106 | 13.0 | 17.0 | 0.00 | 0.00 | 0.00 | 50 | 1013.3 |
| 20260506213502 | 78 | 107 | 14.0 | 18.0 | 0.00 | 0.00 | 0.00 | 49 | 1013.4 |
| 20260506212958 | 79 | 102 | 12.0 | 18.0 | 0.00 | 0.00 | 0.00 | 50 | 1013.4 |
| 20260506212554 | 79 | 102 | 12.0 | 18.0 | 0.00 | 0.00 | 0.00 | 50 | 1013.4 |
| 20260506212041 | 79 | 95 | 10.0 | 15.0 | 0.00 | 0.00 | 0.00 | 50 | 1013.5 |
| 20260506211500 | 79 | 98 | 11.0 | 14.0 | 0.00 | 0.00 | 0.00 | 43 | 1013.6 |
| 20260506211021 | 79 | 98 | 11.0 | 14.0 | 0.00 | 0.00 | 0.00 | 43 | 1013.6 |
| 20260506210521 | 78 | 94 | 10.0 | 14.0 | 0.00 | 0.00 | 0.00 | 43 | 1013.7 |
| 20260506210008 | 77 | 92 | 11.0 | 14.0 | 0.00 | 0.00 | 0.00 | 44 | 1013.8 |
| 20260506205553 | 77 | 92 | 11.0 | 14.0 | 0.00 | 0.00 | 0.00 | 44 | 1013.8 |
| 20260506205054 | 77 | 87 | 11.0 | 14.0 | 0.00 | 0.00 | 0.00 | 44 | 1013.8 |
| 20260506204458 | 77 | 84 | 11.0 | 14.0 | 0.00 | 0.00 | 0.00 | 43 | 1014.0 |
| 20260506204000 | 77 | 80 | 11.0 | 14.0 | 0.00 | 0.00 | 0.00 | 41 | 1014.1 |
| 20260506203529 | 77 | 80 | 11.0 | 14.0 | 0.00 | 0.00 | 0.00 | 41 | 1014.1 |
| 20260506203014 | 77 | 87 | 11.0 | 14.0 | 0.00 | 0.00 | 0.00 | 41 | 1014.1 |
| 20260506202629 | 77 | 92 | 11.0 | 14.0 | 0.00 | 0.00 | 0.00 | 41 | 1014.2 |
| 20260506202050 | 77 | 95 | 11.0 | 14.0 | 0.00 | 0.00 | 0.00 | 39 | 1014.2 |
| 20260506201504 | 77 | 84 | 10.0 | 13.0 | 0.00 | 0.00 | 0.00 | 40 | 1014.4 |
| 20260506201020 | 77 | 84 | 10.0 | 13.0 | 0.00 | 0.00 | 0.00 | 40 | 1014.4 |
| 20260506200517 | 77 | 82 | 10.0 | 12.0 | 0.00 | 0.00 | 0.00 | 39 | 1014.5 |
| 20260506200019 | 77 | 74 | 8.0 | 12.0 | 0.00 | 0.00 | 0.00 | 40 | 1014.6 |
| 20260506195552 | 77 | 75 | 9.0 | 11.0 | 0.00 | 0.00 | 0.00 | 38 | 1014.7 |
| 20260506195107 | 77 | 79 | 9.0 | 11.0 | 0.00 | 0.00 | 0.00 | 38 | 1014.7 |
| 20260506194459 | 77 | 81 | 8.0 | 11.0 | 0.00 | 0.00 | 0.00 | 39 | 1014.9 |
| 20260506194000 | 76 | 81 | 9.0 | 11.0 | 0.00 | 0.00 | 0.00 | 38 | 1015.0 |
| 20260506193501 | 76 | 81 | 8.0 | 10.0 | 0.00 | 0.00 | 0.00 | 39 | 1015.1 |
| 20260506193013 | 76 | 81 | 8.0 | 10.0 | 0.00 | 0.00 | 0.00 | 39 | 1015.1 |
| 20260506192612 | 76 | 79 | 8.0 | 11.0 | 0.00 | 0.00 | 0.00 | 39 | 1015.1 |
| 20260506192044 | 76 | 88 | 8.0 | 11.0 | 0.00 | 0.00 | 0.00 | 38 | 1015.2 |
| 20260506191458 | 75 | 78 | 8.0 | 11.0 | 0.00 | 0.00 | 0.00 | 39 | 1015.3 |
| 20260506191018 | 75 | 78 | 8.0 | 11.0 | 0.00 | 0.00 | 0.00 | 39 | 1015.3 |
| 20260506190538 | 75 | 83 | 8.0 | 11.0 | 0.00 | 0.00 | 0.00 | 38 | 1015.4 |
| 20260506190018 | 75 | 74 | 8.0 | 11.0 | 0.00 | 0.00 | 0.00 | 38 | 1015.5 |
| 20260506185556 | 75 | 77 | 8.0 | 11.0 | 0.00 | 0.00 | 0.00 | 37 | 1015.5 |
| 20260506185035 | 75 | 78 | 7.0 | 10.0 | 0.00 | 0.00 | 0.00 | 37 | 1015.5 |
| 20260506184522 | 75 | 73 | 7.0 | 9.0 | 0.00 | 0.00 | 0.00 | 36 | 1015.6 |
| 20260506184024 | 74 | 63 | 7.0 | 10.0 | 0.00 | 0.00 | 0.00 | 36 | 1015.7 |
| 20260506183522 | 75 | 71 | 7.0 | 8.0 | 0.00 | 0.00 | 0.00 | 36 | 1015.7 |
| 20260506183015 | 75 | 71 | 7.0 | 8.0 | 0.00 | 0.00 | 0.00 | 36 | 1015.7 |
| 20260506182605 | 74 | 73 | 6.0 | 9.0 | 0.00 | 0.00 | 0.00 | 38 | 1015.8 |
| 20260506182042 | 74 | 69 | 7.0 | 9.0 | 0.00 | 0.00 | 0.00 | 37 | 1015.8 |
| 20260506181500 | 74 | 66 | 7.0 | 8.0 | 0.00 | 0.00 | 0.00 | 37 | 1015.9 |
| 20260506181036 | 74 | 66 | 7.0 | 8.0 | 0.00 | 0.00 | 0.00 | 37 | 1015.9 |
| 20260506180540 | 74 | 64 | 6.0 | 9.0 | 0.00 | 0.00 | 0.00 | 38 | 1015.9 |
| 20260506180025 | 74 | 69 | 6.0 | 10.0 | 0.00 | 0.00 | 0.00 | 37 | 1015.9 |
| 20260506175554 | 73 | 66 | 6.0 | 8.0 | 0.00 | 0.00 | 0.00 | 37 | 1015.9 |
| 20260506175039 | 73 | 79 | 6.0 | 10.0 | 0.00 | 0.00 | 0.00 | 37 | 1016.0 |
| 20260506174521 | 73 | 68 | 5.0 | 8.0 | 0.00 | 0.00 | 0.00 | 38 | 1016.0 |
| 20260506174000 | 73 | 55 | 4.0 | 7.0 | 0.00 | 0.00 | 0.00 | 38 | 1016.0 |
| 20260506173504 | 73 | 61 | 4.0 | 6.0 | 0.00 | 0.00 | 0.00 | 38 | 1016.1 |
| 20260506173022 | 73 | 50 | 4.0 | 6.0 | 0.00 | 0.00 | 0.00 | 38 | 1016.2 |
| 20260506172556 | 73 | 50 | 4.0 | 6.0 | 0.00 | 0.00 | 0.00 | 38 | 1016.2 |
| 20260506172104 | 72 | 90 | 3.0 | 6.0 | 0.00 | 0.00 | 0.00 | 39 | 1016.2 |
| 20260506171500 | 72 | 41 | 4.0 | 5.0 | 0.00 | 0.00 | 0.00 | 40 | 1016.1 |
| 20260506171054 | 72 | 41 | 4.0 | 5.0 | 0.00 | 0.00 | 0.00 | 40 | 1016.1 |
| 20260506170651 | 72 | 42 | 3.0 | 6.0 | 0.00 | 0.00 | 0.00 | 40 | 1016.1 |
| 20260506170038 | 71 | 40 | 3.0 | 5.0 | 0.00 | 0.00 | 0.00 | 41 | 1016.2 |
| 20260506165615 | 70 | 42 | 3.0 | 6.0 | 0.00 | 0.00 | 0.00 | 42 | 1016.2 |
| 20260506165040 | 70 | 23 | 4.0 | 6.0 | 0.00 | 0.00 | 0.00 | 43 | 1016.2 |
| 20260506164501 | 70 | 12 | 5.0 | 8.0 | 0.00 | 0.00 | 0.00 | 46 | 1016.3 |
| 20260506164000 | 69 | 19 | 5.0 | 9.0 | 0.00 | 0.00 | 0.00 | 46 | 1016.2 |
| 20260506163502 | 69 | 25 | 5.0 | 7.0 | 0.00 | 0.00 | 0.00 | 48 | 1016.2 |
| 20260506163032 | 69 | 25 | 5.0 | 7.0 | 0.00 | 0.00 | 0.00 | 48 | 1016.2 |
| 20260506162604 | 69 | 26 | 6.0 | 8.0 | 0.00 | 0.00 | 0.00 | 48 | 1016.2 |
| 20260506162043 | 69 | 20 | 4.0 | 8.0 | 0.00 | 0.00 | 0.00 | 49 | 1016.2 |
| 20260506161503 | 68 | 16 | 7.0 | 9.0 | 0.00 | 0.00 | 0.00 | 49 | 1016.1 |
| 20260506161020 | 68 | 16 | 7.0 | 9.0 | 0.00 | 0.00 | 0.00 | 49 | 1016.1 |
| 20260506160500 | 68 | 7 | 6.0 | 8.0 | 0.00 | 0.00 | 0.00 | 48 | 1016.0 |
| 20260506155958 | 68 | 5 | 6.0 | 8.0 | 0.00 | 0.00 | 0.00 | 48 | 1016.0 |
| 20260506155528 | 68 | 354 | 6.0 | 8.0 | 0.00 | 0.00 | 0.00 | 48 | 1016.0 |
| 20260506155019 | 68 | 354 | 6.0 | 8.0 | 0.00 | 0.00 | 0.00 | 48 | 1016.0 |
| 20260506154500 | 67 | 3 | 7.0 | 9.0 | 0.00 | 0.00 | 0.00 | 49 | 1016.0 |
| 20260506154000 | 67 | 8 | 7.0 | 9.0 | 0.00 | 0.00 | 0.00 | 50 | 1016.0 |
| 20260506153521 | 67 | 11 | 8.0 | 11.0 | 0.00 | 0.00 | 0.00 | 50 | 1016.0 |
| 20260506152959 | 67 | 9 | 8.0 | 10.0 | 0.00 | 0.00 | 0.00 | 50 | 1016.0 |
| 20260506152517 | 67 | 9 | 8.0 | 10.0 | 0.00 | 0.00 | 0.00 | 50 | 1016.0 |
| 20260506152022 | 67 | 5 | 8.0 | 11.0 | 0.00 | 0.00 | 0.00 | 52 | 1016.0 |
| 20260506151459 | 66 | 1 | 6.0 | 9.0 | 0.00 | 0.00 | 0.00 | 52 | 1016.0 |
| 20260506151020 | 66 | 1 | 6.0 | 9.0 | 0.00 | 0.00 | 0.00 | 52 | 1016.0 |
| 20260506150507 | 66 | 358 | 6.0 | 7.0 | 0.00 | 0.00 | 0.00 | 51 | 1015.9 |
| 20260506150033 | 66 | 358 | 6.0 | 7.0 | 0.00 | 0.00 | 0.00 | 51 | 1015.9 |
| 20260506145610 | 66 | 360 | 5.0 | 7.0 | 0.00 | 0.00 | 0.00 | 51 | 1016.0 |
| 20260506145116 | 66 | 352 | 6.0 | 7.0 | 0.00 | 0.00 | 0.00 | 51 | 1016.0 |
| 20260506144459 | 65 | 343 | 5.0 | 7.0 | 0.00 | 0.00 | 0.00 | 51 | 1015.9 |
| 20260506143958 | 65 | 323 | 4.0 | 7.0 | 0.00 | 0.00 | 0.00 | 52 | 1015.8 |
| 20260506143608 | 65 | 323 | 4.0 | 7.0 | 0.00 | 0.00 | 0.00 | 52 | 1015.8 |
| 20260506143154 | 65 | 340 | 6.0 | 10.0 | 0.00 | 0.00 | 0.00 | 52 | 1015.8 |
| 20260506142815 | 65 | 341 | 6.0 | 10.0 | 0.00 | 0.00 | 0.00 | 52 | 1015.7 |
| 20260506142131 | 64 | 336 | 7.0 | 8.0 | 0.00 | 0.00 | 0.00 | 53 | 1015.7 |
| 20260506141518 | 64 | 332 | 6.0 | 8.0 | 0.00 | 0.00 | 0.00 | 53 | 1015.6 |
| 20260506141106 | 64 | 332 | 6.0 | 8.0 | 0.00 | 0.00 | 0.00 | 53 | 1015.6 |
| 20260506140719 | 63 | 333 | 6.0 | 8.0 | 0.00 | 0.00 | 0.00 | 53 | 1015.5 |
| 20260506140214 | 63 | 334 | 7.0 | 9.0 | 0.00 | 0.00 | 0.00 | 53 | 1015.5 |
| 20260506135753 | 63 | 333 | 6.0 | 8.0 | 0.00 | 0.00 | 0.00 | 54 | 1015.4 |
| 20260506135120 | 62 | 331 | 5.0 | 6.0 | 0.00 | 0.00 | 0.00 | 54 | 1015.3 |
| 20260506134458 | 62 | 329 | 5.0 | 6.0 | 0.00 | 0.00 | 0.00 | 53 | 1015.2 |
| 20260506134001 | 62 | 320 | 5.0 | 5.0 | 0.00 | 0.00 | 0.00 | 53 | 1015.2 |
| 20260506133459 | 62 | 298 | 4.0 | 5.0 | 0.00 | 0.00 | 0.00 | 52 | 1015.1 |
| 20260506132958 | 62 | 294 | 5.0 | 5.0 | 0.00 | 0.00 | 0.00 | 53 | 1015.0 |
| 20260506132617 | 62 | 294 | 5.0 | 5.0 | 0.00 | 0.00 | 0.00 | 53 | 1015.0 |
| 20260506132211 | 62 | 294 | 4.0 | 5.0 | 0.00 | 0.00 | 0.00 | 53 | 1014.9 |
| 20260506131458 | 62 | 307 | 3.0 | 5.0 | 0.00 | 0.00 | 0.00 | 54 | 1014.8 |
| 20260506131038 | 62 | 307 | 3.0 | 5.0 | 0.00 | 0.00 | 0.00 | 54 | 1014.8 |
| 20260506130531 | 62 | 293 | 3.0 | 4.0 | 0.00 | 0.00 | 0.00 | 54 | 1014.8 |
| 20260506130037 | 62 | 318 | 3.0 | 4.0 | 0.00 | 0.00 | 0.00 | 54 | 1014.6 |
| 20260506125631 | 62 | 321 | 3.0 | 4.0 | 0.00 | 0.00 | 0.00 | 54 | 1014.6 |
| 20260506125102 | 62 | 322 | 2.0 | 4.0 | 0.00 | 0.00 | 0.00 | 54 | 1014.5 |
| 20260506124522 | 62 | 320 | 2.0 | 3.0 | 0.00 | 0.00 | 0.00 | 54 | 1014.4 |
| 20260506124001 | 63 | 340 | 3.0 | 5.0 | 0.00 | 0.00 | 0.00 | 53 | 1014.4 |
| 20260506123501 | 63 | 338 | 3.0 | 4.0 | 0.00 | 0.00 | 0.00 | 53 | 1014.4 |
| 20260506123001 | 62 | 5 | 3.0 | 5.0 | 0.00 | 0.00 | 0.00 | 53 | 1014.4 |
| 20260506122609 | 62 | 5 | 3.0 | 5.0 | 0.00 | 0.00 | 0.00 | 53 | 1014.4 |
| 20260506122011 | 62 | 51 | 2.0 | 3.0 | 0.00 | 0.00 | 0.00 | 53 | 1014.4 |
| 20260506121500 | 63 | 292 | 2.0 | 3.0 | 0.00 | 0.00 | 0.00 | 53 | 1014.2 |
| 20260506121018 | 63 | 292 | 2.0 | 3.0 | 0.00 | 0.00 | 0.00 | 53 | 1014.2 |
| 20260506120509 | 62 | 289 | 3.0 | 3.0 | 0.00 | 0.00 | 0.00 | 53 | 1014.2 |
| 20260506120000 | 62 | 306 | 4.0 | 5.0 | 0.00 | 0.00 | 0.00 | 53 | 1014.2 |
| 20260506115555 | 62 | 306 | 4.0 | 5.0 | 0.00 | 0.00 | 0.00 | 53 | 1014.2 |
| 20260506115109 | 62 | 300 | 4.0 | 6.0 | 0.00 | 0.00 | 0.00 | 52 | 1014.2 |
| 20260506114500 | 63 | 313 | 6.0 | 8.0 | 0.00 | 0.00 | 0.00 | 52 | 1014.1 |
| 20260506113959 | 63 | 305 | 6.0 | 8.0 | 0.00 | 0.00 | 0.00 | 51 | 1014.1 |
| 20260506113459 | 63 | 301 | 5.0 | 7.0 | 0.00 | 0.00 | 0.00 | 51 | 1014.1 |
| 20260506113000 | 63 | 293 | 5.0 | 6.0 | 0.00 | 0.00 | 0.00 | 52 | 1014.1 |
| 20260506112522 | 63 | 293 | 5.0 | 6.0 | 0.00 | 0.00 | 0.00 | 52 | 1014.1 |
| 20260506112022 | 63 | 300 | 5.0 | 7.0 | 0.00 | 0.00 | 0.00 | 51 | 1014.0 |
| 20260506111501 | 64 | 310 | 7.0 | 9.0 | 0.00 | 0.00 | 0.00 | 51 | 1014.0 |
| 20260506111019 | 64 | 310 | 7.0 | 9.0 | 0.00 | 0.00 | 0.00 | 51 | 1014.0 |
| 20260506110522 | 63 | 321 | 6.0 | 8.0 | 0.00 | 0.00 | 0.00 | 52 | 1014.0 |
| 20260506110040 | 63 | 334 | 5.0 | 6.0 | 0.00 | 0.00 | 0.00 | 52 | 1014.0 |
| 20260506105638 | 63 | 330 | 4.0 | 6.0 | 0.00 | 0.00 | 0.00 | 52 | 1013.9 |
| 20260506105100 | 63 | 302 | 2.0 | 4.0 | 0.00 | 0.00 | 0.00 | 52 | 1013.8 |
| 20260506104522 | 63 | 297 | 3.0 | 4.0 | 0.00 | 0.00 | 0.00 | 52 | 1013.8 |
| 20260506104001 | 63 | 296 | 4.0 | 5.0 | 0.00 | 0.00 | 0.00 | 52 | 1013.8 |
| 20260506103502 | 63 | 306 | 5.0 | 7.0 | 0.00 | 0.00 | 0.00 | 52 | 1013.8 |
| 20260506103029 | 63 | 306 | 5.0 | 7.0 | 0.00 | 0.00 | 0.00 | 52 | 1013.8 |
| 20260506102641 | 63 | 320 | 5.0 | 8.0 | 0.00 | 0.00 | 0.00 | 51 | 1013.8 |
| 20260506102140 | 64 | 331 | 8.0 | 9.0 | 0.00 | 0.00 | 0.00 | 51 | 1013.8 |
| 20260506101527 | 64 | 334 | 9.0 | 11.0 | 0.00 | 0.00 | 0.00 | 51 | 1013.8 |
| 20260506101021 | 64 | 326 | 9.0 | 11.0 | 0.00 | 0.00 | 0.00 | 50 | 1013.8 |
| 20260506100517 | 64 | 318 | 9.0 | 11.0 | 0.00 | 0.00 | 0.00 | 51 | 1013.8 |
| 20260506100021 | 64 | 324 | 9.0 | 12.0 | 0.00 | 0.00 | 0.00 | 50 | 1013.8 |
| 20260506095639 | 64 | 331 | 9.0 | 10.0 | 0.00 | 0.00 | 0.00 | 50 | 1013.7 |
| 20260506095100 | 64 | 332 | 9.0 | 12.0 | 0.00 | 0.00 | 0.00 | 50 | 1013.7 |
| 20260506094500 | 64 | 323 | 8.0 | 11.0 | 0.00 | 0.00 | 0.00 | 49 | 1013.7 |
| 20260506094000 | 65 | 322 | 8.0 | 11.0 | 0.00 | 0.00 | 0.00 | 49 | 1013.7 |
| 20260506093500 | 65 | 321 | 8.0 | 11.0 | 0.00 | 0.00 | 0.00 | 49 | 1013.8 |
| 20260506092959 | 65 | 322 | 8.0 | 11.0 | 0.00 | 0.00 | 0.00 | 48 | 1013.8 |
| 20260506092526 | 65 | 322 | 8.0 | 11.0 | 0.00 | 0.00 | 0.00 | 48 | 1013.8 |
| 20260506092020 | 65 | 324 | 8.0 | 11.0 | 0.00 | 0.00 | 0.00 | 48 | 1013.8 |
| 20260506091500 | 65 | 320 | 8.0 | 11.0 | 0.00 | 0.00 | 0.00 | 47 | 1013.7 |
| 20260506091019 | 65 | 320 | 8.0 | 11.0 | 0.00 | 0.00 | 0.00 | 47 | 1013.7 |
| 20260506090511 | 66 | 317 | 8.0 | 13.0 | 0.00 | 0.00 | 0.00 | 47 | 1013.7 |
| 20260506085959 | 66 | 313 | 9.0 | 12.0 | 0.00 | 0.00 | 0.00 | 47 | 1013.7 |
| 20260506085600 | 66 | 313 | 9.0 | 12.0 | 0.00 | 0.00 | 0.00 | 47 | 1013.7 |
| 20260506085103 | 65 | 315 | 9.0 | 12.0 | 0.00 | 0.00 | 0.00 | 47 | 1013.8 |
| 20260506084500 | 65 | 316 | 9.0 | 11.0 | 0.00 | 0.00 | 0.00 | 47 | 1013.8 |
| 20260506083959 | 65 | 322 | 10.0 | 12.0 | 0.00 | 0.00 | 0.00 | 47 | 1013.8 |
| 20260506083501 | 65 | 320 | 8.0 | 11.0 | 0.00 | 0.00 | 0.00 | 47 | 1013.8 |
| 20260506083019 | 65 | 318 | 8.0 | 10.0 | 0.00 | 0.00 | 0.00 | 48 | 1013.8 |
| 20260506082602 | 65 | 318 | 8.0 | 10.0 | 0.00 | 0.00 | 0.00 | 48 | 1013.8 |
| 20260506082058 | 65 | 319 | 8.0 | 11.0 | 0.00 | 0.00 | 0.00 | 47 | 1013.9 |
| 20260506081503 | 65 | 314 | 8.0 | 9.0 | 0.00 | 0.00 | 0.00 | 48 | 1013.9 |
| 20260506081025 | 65 | 314 | 8.0 | 9.0 | 0.00 | 0.00 | 0.00 | 48 | 1013.9 |
| 20260506080504 | 65 | 331 | 9.0 | 11.0 | 0.00 | 0.00 | 0.00 | 48 | 1013.8 |
| 20260506073500 | 66 | 331 | 8.0 | 12.0 | 0.00 | 0.00 | 0.00 | 46 | 1013.8 |
| 20260506073002 | 66 | 328 | 8.0 | 11.0 | 0.00 | 0.00 | 0.00 | 46 | 1013.8 |
| 20260506072611 | 66 | 328 | 8.0 | 11.0 | 0.00 | 0.00 | 0.00 | 46 | 1013.8 |
| 20260506072104 | 66 | 325 | 8.0 | 10.0 | 0.00 | 0.00 | 0.00 | 46 | 1013.8 |
| 20260506071543 | 66 | 327 | 9.0 | 12.0 | 0.00 | 0.00 | 0.00 | 46 | 1013.7 |
| 20260506071211 | 66 | 328 | 9.0 | 14.0 | 0.00 | 0.00 | 0.00 | 46 | 1013.7 |
| 20260506070642 | 66 | 325 | 9.0 | 11.0 | 0.00 | 0.00 | 0.00 | 46 | 1013.6 |
| 20260506062018 | 67 | 330 | 8.0 | 11.0 | 0.00 | 0.00 | 0.00 | 45 | 1013.1 |
| 20260506061459 | 67 | 328 | 9.0 | 12.0 | 0.00 | 0.00 | 0.00 | 45 | 1013.1 |
| 20260506061020 | 67 | 328 | 9.0 | 12.0 | 0.00 | 0.00 | 0.00 | 45 | 1013.1 |
| 20260506060527 | 68 | 330 | 9.0 | 11.0 | 0.00 | 0.00 | 0.00 | 44 | 1013.1 |
| 20260506051018 | 69 | 322 | 9.0 | 12.0 | 0.00 | 0.00 | 0.00 | 42 | 1012.7 |
| 20260506050501 | 69 | 329 | 10.0 | 14.0 | 0.00 | 0.00 | 0.00 | 42 | 1012.6 |
| 20260506045058 | 70 | 328 | 9.0 | 14.0 | 0.00 | 0.00 | 0.00 | 41 | 1012.5 |
| 20260506044459 | 70 | 326 | 10.0 | 13.0 | 0.00 | 0.00 | 0.00 | 41 | 1012.4 |
| 20260506044023 | 70 | 317 | 10.0 | 14.0 | 0.00 | 0.00 | 0.00 | 41 | 1012.3 |
| 20260506043522 | 70 | 312 | 10.0 | 15.0 | 0.00 | 0.00 | 0.00 | 41 | 1012.2 |
| 20260506043006 | 70 | 312 | 9.0 | 14.0 | 0.00 | 0.00 | 0.00 | 41 | 1012.1 |
| 20260506042618 | 70 | 312 | 9.0 | 14.0 | 0.00 | 0.00 | 0.00 | 41 | 1012.1 |
| 20260506042110 | 70 | 313 | 10.0 | 14.0 | 0.00 | 0.00 | 0.00 | 40 | 1012.0 |
| 20260506041515 | 71 | 313 | 11.0 | 17.0 | 0.00 | 0.00 | 0.00 | 40 | 1011.8 |
| 20260506041045 | 71 | 320 | 11.0 | 16.0 | 0.00 | 0.00 | 0.00 | 40 | 1011.7 |
| 20260506040522 | 71 | 330 | 15.0 | 23.0 | 0.00 | 0.00 | 0.00 | 40 | 1011.5 |
| 20260506035959 | 71 | 335 | 15.0 | 21.0 | 0.00 | 0.00 | 0.00 | 39 | 1011.2 |
| 20260506035513 | 71 | 335 | 15.0 | 21.0 | 0.00 | 0.00 | 0.00 | 39 | 1011.2 |
| 20260506035040 | 72 | 331 | 13.0 | 19.0 | 0.00 | 0.00 | 0.00 | 39 | 1011.2 |
| 20260506034501 | 72 | 326 | 13.0 | 18.0 | 0.00 | 0.00 | 0.00 | 38 | 1011.2 |
| 20260506034001 | 72 | 328 | 15.0 | 21.0 | 0.00 | 0.00 | 0.00 | 38 | 1011.1 |
| 20260506033459 | 72 | 327 | 15.0 | 22.0 | 0.00 | 0.00 | 0.00 | 38 | 1011.0 |
| 20260506032959 | 73 | 326 | 11.0 | 18.0 | 0.00 | 0.00 | 0.00 | 37 | 1011.0 |
| 20260506032604 | 73 | 326 | 11.0 | 18.0 | 0.00 | 0.00 | 0.00 | 37 | 1011.0 |
| 20260506032100 | 73 | 327 | 8.0 | 11.0 | 0.00 | 0.00 | 0.00 | 37 | 1010.9 |
| 20260506031500 | 73 | 317 | 11.0 | 20.0 | 0.00 | 0.00 | 0.00 | 36 | 1010.8 |
| 20260506031041 | 73 | 317 | 11.0 | 20.0 | 0.00 | 0.00 | 0.00 | 36 | 1010.8 |
| 20260506030504 | 74 | 309 | 7.0 | 12.0 | 0.00 | 0.00 | 0.00 | 34 | 1010.5 |
| 20260506025958 | 75 | 308 | 8.0 | 11.0 | 0.00 | 0.00 | 0.00 | 33 | 1010.3 |
| 20260506025537 | 75 | 308 | 8.0 | 11.0 | 0.00 | 0.00 | 0.00 | 33 | 1010.3 |
| 20260506025027 | 75 | 301 | 7.0 | 11.0 | 0.00 | 0.00 | 0.00 | 33 | 1010.2 |
| 20260506024520 | 75 | 306 | 7.0 | 9.0 | 0.00 | 0.00 | 0.00 | 32 | 1010.0 |
| 20260506024000 | 76 | 294 | 9.0 | 12.0 | 0.00 | 0.00 | 0.00 | 31 | 1009.9 |
| 20260506023502 | 76 | 288 | 8.0 | 12.0 | 0.00 | 0.00 | 0.00 | 31 | 1009.8 |